{"data":{"norad_id":66476,"epoch":"2026-09-20T07:58:02.161344Z","epoch_age_seconds":104336,"freshness":"FRESH","line1":"1 66476U 25262W   26263.33196946  .00008545  00000+0  31967-3 0  9996","line2":"2 66476  43.0018 276.9972 0001122 270.2776  89.7947 15.27582515 48564","mean_motion":15.27582515,"eccentricity":0.0001122,"inclination_deg":43.0018,"raan_deg":276.9972,"arg_perigee_deg":270.2776,"mean_anomaly_deg":89.7947,"bstar":0.00031967,"rev_number":4856,"period_min":94.266593513608,"perigee_km":482.2717410002,"apogee_km":483.81138947024,"semimajor_km":6861.1785652352,"source":"CELESTRAK","updated_at":"2026-09-21T09:00:35.916575Z"}}